• In Netherlands
  • List of Countries
  • For 7 days
  • Water Temperature
  • Satellite Maps
  • Weather Map
  • Weather Widgets
  • user-avatar
    Login

    Hourly Weather Asadabad

    Today, 24 January, Wednesday

    Time Temperature Precipitation Wind Pressure Humidity
    00:00 +5°C° 0 mm 2 mps 653 mmHg 21%
    01:00 +4°C° 0 mm 2 mps 653 mmHg 20%
    02:00 +4°C° 0 mm 2 mps 653 mmHg 20%
    03:00 +4°C° 0 mm 2 mps 653 mmHg 19%
    04:00 +4°C° 0 mm 2 mps 652 mmHg 19%
    05:00 +3°C° 0 mm 2 mps 652 mmHg 19%
    06:00 +3°C° 0 mm 2 mps 653 mmHg 19%
    07:00 +3°C° 0 mm 2 mps 653 mmHg 19%
    08:00 +4°C° 0 mm 2 mps 653 mmHg 19%
    09:00 +6°C° 0 mm 2 mps 654 mmHg 17%
    10:00 +8°C° 0 mm 2 mps 655 mmHg 15%
    11:00 +11°C° 0 mm 1 mps 655 mmHg 13%
    12:00 +12°C° 0 mm 2 mps 655 mmHg 14%
    13:00 +12°C° 0 mm 2 mps 655 mmHg 15%
    14:00 +13°C° 0 mm 2 mps 655 mmHg 16%
    15:00 +12°C° 0 mm 2 mps 655 mmHg 19%
    16:00 +11°C° 0 mm 1 mps 655 mmHg 22%
    17:00 +11°C° 0 mm 1 mps 655 mmHg 24%
    18:00 +9°C° 0 mm 1 mps 655 mmHg 27%
    19:00 +7°C° 0 mm 1 mps 656 mmHg 29%
    20:00 +6°C° 0 mm 1 mps 656 mmHg 32%
    21:00 +6°C° 0 mm 1 mps 656 mmHg 31%
    22:00 +4°C° 0 mm 2 mps 656 mmHg 30%
    23:00 +4°C° 0 mm 2 mps 656 mmHg 30%

    Tomorrow, 25 January, Thursday

    Time Temperature Precipitation Wind Pressure Humidity
    00:00 +4°C° 0 mm 2 mps 656 mmHg 29%
    01:00 +4°C° 0 mm 2 mps 656 mmHg 29%
    02:00 +3°C° 0 mm 2 mps 655 mmHg 28%
    03:00 +3°C° 0 mm 2 mps 655 mmHg 27%
    04:00 +3°C° 0 mm 2 mps 655 mmHg 27%
    05:00 +2°C° 0 mm 3 mps 654 mmHg 26%
    06:00 +2°C° 0 mm 3 mps 655 mmHg 26%
    07:00 +2°C° 0 mm 3 mps 655 mmHg 25%
    08:00 +2°C° 0 mm 3 mps 655 mmHg 25%
    09:00 +6°C° 0 mm 2 mps 656 mmHg 22%
    10:00 +8°C° 0 mm 2 mps 656 mmHg 19%
    11:00 +11°C° 0 mm 1 mps 656 mmHg 17%
    12:00 +12°C° 0 mm 1 mps 656 mmHg 17%
    13:00 +13°C° 0 mm 2 mps 655 mmHg 16%
    14:00 +13°C° 0 mm 2 mps 655 mmHg 16%
    15:00 +13°C° 0 mm 2 mps 655 mmHg 19%
    16:00 +12°C° 0 mm 1 mps 655 mmHg 21%
    17:00 +11°C° 0 mm 1 mps 655 mmHg 23%
    18:00 +9°C° 0 mm 2 mps 655 mmHg 25%
    19:00 +7°C° 0 mm 2 mps 656 mmHg 26%
    20:00 +6°C° 0 mm 2 mps 656 mmHg 27%
    21:00 +4°C° 0 mm 3 mps 656 mmHg 27%
    22:00 +4°C° 0 mm 3 mps 656 mmHg 27%
    23:00 +3°C° 0 mm 3 mps 656 mmHg 27%

    Day after tomorrow, 26 January, Friday

    Time Temperature Precipitation Wind Pressure Humidity
    00:00 +3°C° 0 mm 3 mps 656 mmHg 27%
    01:00 +3°C° 0 mm 3 mps 656 mmHg 26%
    02:00 +2°C° 0 mm 3 mps 656 mmHg 26%
    03:00 +2°C° 0 mm 3 mps 656 mmHg 26%
    04:00 +2°C° 0 mm 3 mps 656 mmHg 26%
    05:00 +2°C° 0 mm 3 mps 656 mmHg 26%
    06:00 +2°C° 0 mm 3 mps 656 mmHg 25%
    07:00 +2°C° 0 mm 3 mps 656 mmHg 25%
    08:00 +2°C° 0 mm 3 mps 657 mmHg 25%
    09:00 +5°C° 0 mm 2 mps 657 mmHg 22%
    10:00 +8°C° 0 mm 2 mps 657 mmHg 19%
    11:00 +11°C° 0 mm 1 mps 657 mmHg 17%
    12:00 +12°C° 0 mm 1 mps 656 mmHg 16%
    13:00 +12°C° 0 mm 2 mps 656 mmHg 16%
    14:00 +13°C° 0 mm 2 mps 655 mmHg 15%
    15:00 +12°C° 0 mm 2 mps 655 mmHg 18%
    16:00 +12°C° 0 mm 1 mps 655 mmHg 20%
    17:00 +11°C° 0 mm 1 mps 655 mmHg 22%
    18:00 +9°C° 0 mm 1 mps 655 mmHg 24%
    19:00 +8°C° 0 mm 1 mps 655 mmHg 26%
    20:00 +5°C° 0 mm 2 mps 656 mmHg 28%
    21:00 +5°C° 0 mm 2 mps 656 mmHg 28%
    22:00 +4°C° 0 mm 2 mps 656 mmHg 28%
    23:00 +4°C° 0 mm 2 mps 656 mmHg 28%

    27 January, Saturday

    Time Temperature Precipitation Wind Pressure Humidity
    00:00 +4°C° 0 mm 2 mps 656 mmHg 28%
    01:00 +4°C° 0 mm 2 mps 655 mmHg 28%
    02:00 +3°C° 0 mm 2 mps 655 mmHg 28%
    03:00 +3°C° 0 mm 2 mps 655 mmHg 28%
    04:00 +3°C° 0 mm 2 mps 655 mmHg 28%
    05:00 +2°C° 0 mm 2 mps 654 mmHg 28%
    06:00 +3°C° 0 mm 2 mps 655 mmHg 28%
    07:00 +3°C° 0 mm 2 mps 655 mmHg 28%
    08:00 +3°C° 0 mm 2 mps 655 mmHg 28%
    09:00 +5°C° 0 mm 2 mps 656 mmHg 25%
    10:00 +7°C° 0 mm 2 mps 656 mmHg 22%
    11:00 +11°C° 0 mm 1 mps 656 mmHg 19%
    12:00 +11°C° 0 mm 1 mps 656 mmHg 19%
    13:00 +10°C° 0 mm 2 mps 655 mmHg 19%
    14:00 +12°C° 0 mm 2 mps 655 mmHg 19%
    15:00 +10°C° 0 mm 2 mps 655 mmHg 21%
    16:00 +11°C° 0 mm 1 mps 655 mmHg 23%
    17:00 +10°C° 0 mm 1 mps 655 mmHg 25%
    18:00 +9°C° 0 mm 1 mps 655 mmHg 27%
    19:00 +7°C° 0 mm 1 mps 655 mmHg 29%
    20:00 +6°C° 0 mm 1 mps 656 mmHg 31%
    21:00 +5°C° 0 mm 1 mps 656 mmHg 31%
    22:00 +4°C° 0 mm 2 mps 656 mmHg 31%
    23:00 +4°C° 0 mm 2 mps 656 mmHg 31%

    28 January, Sunday

    Time Temperature Precipitation Wind Pressure Humidity
    00:00 +4°C° 0 mm 2 mps 656 mmHg 31%
    01:00 +3°C° 0 mm 2 mps 656 mmHg 31%
    02:00 +3°C° 0 mm 2 mps 656 mmHg 31%
    03:00 +3°C° 0 mm 2 mps 656 mmHg 31%
    04:00 +3°C° 0 mm 2 mps 655 mmHg 31%
    05:00 +2°C° 0 mm 2 mps 655 mmHg 31%
    06:00 +3°C° 0 mm 2 mps 655 mmHg 30%
    07:00 +3°C° 0 mm 2 mps 656 mmHg 30%
    08:00 +3°C° 0 mm 2 mps 656 mmHg 29%
    09:00 +5°C° 0 mm 2 mps 656 mmHg 27%
    10:00 +8°C° 0 mm 1 mps 657 mmHg 24%
    11:00 +10°C° 0 mm 1 mps 657 mmHg 21%
    12:00 +11°C° 0 mm 1 mps 657 mmHg 21%
    13:00 +12°C° 0 mm 2 mps 656 mmHg 21%
    14:00 +12°C° 0 mm 2 mps 656 mmHg 21%
    15:00 +12°C° 0 mm 2 mps 656 mmHg 23%
    16:00 +11°C° 0 mm 1 mps 656 mmHg 25%
    17:00 +11°C° 0 mm 1 mps 656 mmHg 27%
    18:00 +10°C° 0 mm 1 mps 656 mmHg 29%
    19:00 +9°C° 0 mm 1 mps 657 mmHg 32%
    20:00 +8°C° 0 mm 2 mps 657 mmHg 34%
    21:00 +7°C° 0.1 mm 2 mps 657 mmHg 38%
    22:00 +7°C° 0.1 mm 2 mps 657 mmHg 42%
    23:00 +5°C° 0.1 mm 3 mps 657 mmHg 46%

    29 January, Monday

    Time Temperature Precipitation Wind Pressure Humidity
    00:00 +5°C° 0.1 mm 3 mps 657 mmHg 48%
    01:00 +5°C° 0.1 mm 3 mps 657 mmHg 50%
    02:00 +5°C° 0.1 mm 3 mps 657 mmHg 52%
    03:00 +6°C° 0.2 mm 2 mps 657 mmHg 55%
    04:00 +6°C° 0.2 mm 2 mps 657 mmHg 58%
    05:00 +5°C° 0.2 mm 2 mps 657 mmHg 61%
    06:00 +5°C° 0.3 mm 2 mps 657 mmHg 63%
    07:00 +5°C° 0.3 mm 2 mps 657 mmHg 65%
    08:00 +5°C° 0.3 mm 2 mps 658 mmHg 68%
    09:00 +5°C° 0.2 mm 2 mps 658 mmHg 67%
    10:00 +6°C° 0.2 mm 2 mps 658 mmHg 65%
    11:00 +7°C° 0.2 mm 2 mps 658 mmHg 64%
    12:00 +7°C° 0.7 mm 3 mps 658 mmHg 66%
    13:00 +7°C° 0.7 mm 3 mps 658 mmHg 69%
    14:00 +7°C° 0.7 mm 3 mps 657 mmHg 71%
    15:00 +7°C° 0.3 mm 3 mps 657 mmHg 71%
    16:00 +7°C° 0.3 mm 3 mps 657 mmHg 70%
    17:00 +7°C° 0.3 mm 3 mps 657 mmHg 70%
    18:00 +6°C° 0.4 mm 2 mps 658 mmHg 72%
    19:00 +6°C° 0.4 mm 2 mps 658 mmHg 75%
    20:00 +5°C° 0.4 mm 2 mps 658 mmHg 77%
    21:00 +5°C° 0.7 mm 2 mps 658 mmHg 78%
    22:00 +5°C° 0.7 mm 2 mps 658 mmHg 78%
    23:00 +5°C° 0.7 mm 2 mps 658 mmHg 79%
    Show more